Regional Weather Roundup
Issued by NWS State College, PA

Home | Current Version | Previous Version | Graphics & Text | Print | Product List | Glossary On
Versions: 1 2 3 4 5 6 7 8 9 10 11 12 13 14 15 16 17 18 19 20 21 22 23 24 25 26 27 28 29 30 31 32 33 34 35 36 37 38 39 40 41 42 43 44 45 46 47 48 49 50
000
ASUS41 KCTP 031110
RWRCTP

REGIONAL WEATHER ROUNDUP
NATIONAL WEATHER SERVICE STATE COLLEGE PA
700 AM EDT MON AUG 03 2015

Note: "fair" indicates few or no clouds below 12,000 feet with no
significant weather and/or obstructions to visibility.

* = STATION THAT DOES NOT REPORT PRECIPITATION /E.G. RAIN...SNOW...ETC/
    THUNDER OR FOG.

PAZ002>004-007>009-013>016-020>023-029>032-031200-
WESTERN PENNSYLVANIA

CITY           SKY/WX    TMP DP  RH WIND       PRES   REMARKS
ERIE           CLOUDY    67  56  67 S22G29    29.69F
MEADVILLE      LGT RAIN  64  56  75 S7        29.80F
FRANKLIN*      CLOUDY    63  54  72 S13       29.84S
NEW CASTLE     FAIR      65  60  83 CALM      29.85F
BEAVER COUNTY  NOT AVBL
BUTLER*        MOCLDY    63  59  88 SW5       29.88S
PITTSBURGH INT CLOUDY    67  60  78 W7        29.88S
PITTSBURGH     MOCLDY    66  56  70 SW8       29.88S
INDIANA*       CLEAR     66  61  82 SW5       29.91S
LATROBE        MOCLDY    66  61  82 SW13      29.90
WASHINGTON CO* NOT AVBL
$$

PAZ004>006-010>012-017>019-024>028-033>037-041-042-045-046-049>053-031200-
CENTRAL PENNSYLVANIA

CITY           SKY/WX    TMP DP  RH WIND       PRES   REMARKS
BRADFORD       MOCLDY    63  57  81 S5        29.82F
DUBOIS         PTCLDY    66  59  78 SW8       29.85S
CLEARFIELD     PTCLDY    65  59  81 S8        29.86S
JOHNSTOWN      CLEAR     65  56  72 SW12      29.92S
ALTOONA        PTCLDY    66  58  75 SW7       29.89S
STATE COLLEGE  CLEAR     64  59  82 S5        29.86S
WILLIAMSPORT   CLEAR     65  60  84 CALM      29.82S
SELINSGROVE    CLEAR     65  62  90 VRB3      29.85R
FT INDIANTOWN  CLEAR     61  60  96 CALM      29.86R
CAPITAL CITY   CLEAR     66  61  84 W6        29.86R
HARRISBURG     CLEAR     71  61  70 CALM      29.85R
YORK           CLEAR     64  61  90 CALM      29.86R
$$

PAZ038>040-043-044-047-048-054-055-060>062-067>071-031200-
EASTERN PENNSYLVANIA

CITY           SKY/WX    TMP DP  RH WIND       PRES   REMARKS
SCRANTON       CLEAR     67  59  75 CALM      29.86R
MOUNT POCONO   SUNNY     66  58  75 SW8       29.89R
ALLENTOWN      CLEAR     64  60  87 NW3       29.86R
QUAKERTOWN*    SUNNY     63  59  88 CALM      29.88R
READING        CLEAR     67  61  81 CALM      29.85R
LANCASTER      CLEAR     63  61  93 CALM      29.86R
COATESVILLE    SUNNY     68  63  83 W3        29.88R
POTTSTOWN      CLEAR     65  62  90 CALM      29.88R
BLUE BELL      CLEAR     66  64  94 CALM      29.86R
DOYLESTOWN     CLEAR     65  61  87 CALM      29.86R
WILLOW GROVE   NOT AVBL
NORTH PHILA    SUNNY     72  62  71 CALM      29.87R
PHILADELPHIA   PTCLDY    73  65  75 S8        29.87R
$$



USA.gov is the U.S. government's official web portal to all federal, state and local government web resources and services.